#timestamp,LO_Frequency,Hit,StdDev 
1620295215.7,286047002.2,N
1620295235.5,286047000.2,N
1620295255.3,286047001.8,N
1620295275.2,286047002.8,N
1620295295.0,286046998.2,N
1620295295.9,286046998.2,N
1620295315.7,286047002.8,N
1620295335.6,286047001.6,N
1620295355.4,286047001.7,N
1620295375.3,286047001.9,N
1620295395.1,286047004.0,N
1620295396.0,286047004.0,N
1620295415.8,286047001.8,N
1620295435.7,286047000.3,N
1620295455.5,286047001.9,N
1620295475.4,286047002.0,N
1620295495.2,286047003.7,N
1620295515.0,286047003.2,N
1620295515.9,286047003.2,N
1620295535.8,286047005.9,Y
1620295555.6,286047002.3,P
1620295575.5,286047002.7,P
1620295595.3,286046999.9,N
1620295615.1,286046999.8,N
1620295635.9,286047001.6,N
1620295655.7,286047002.5,N
1620295675.5,286046999.8,N
1620295695.4,286047001.9,N
1620295715.2,286047001.7,N
1620295735.1,286046998.4,N
1620295736.0,286046998.4,N
1620295755.8,286046998.5,N
1620295775.6,286047000.2,N
1620295795.5,286046999.7,N
1620295815.3,286047000.6,N
1620295835.2,286046999.9,N
1620295855.9,286047004.3,N
1620295875.7,286046999.8,N
1620295895.6,286047000.3,N
1620295915.4,286046999.9,N
1620295935.2,286047002.0,N
1620295955.1,286047002.6,N
1620295956.0,286047002.6,N
1620295975.8,286047001.5,N
1620295995.7,286047002.3,N
1620296015.5,286047002.2,N
1620296035.3,286047003.9,N
1620296055.2,286047002.8,N
1620296075.0,286047000.1,N
1620296075.9,286047000.1,N
1620296095.8,286046999.8,N
1620296115.6,286046999.7,N
1620296135.4,286047002.4,N
1620296155.3,286046999.0,N
1620296175.1,286046998.3,N
1620296195.9,286046998.9,N
1620296215.7,286046998.9,N
1620296235.5,286046998.1,N
1620296255.4,286046998.6,N
1620296275.2,286046998.1,N
1620296295.0,286047004.3,N
1620296295.9,286047004.3,N
1620296315.8,286047002.9,N
1620296335.6,286047006.0,Y
1620296355.5,286047003.5,P
1620296375.3,286047001.9,N
1620296395.1,286047001.7,N
1620296415.9,286047003.8,Y
1620296435.7,286046998.1,P
1620296455.6,286046998.4,N
1620296475.4,286046995.3,N
1620296495.2,286046995.7,N
1620296515.1,286046995.2,N
1620296516.0,286046995.2,N
1620296535.8,286046996.7,N
1620296555.7,286046998.7,N
1620296575.5,286047000.3,N
1620296595.3,286046999.2,N
1620296615.2,286046998.4,N
1620296635.9,286046999.1,N
1620296655.7,286046999.3,N
1620296675.6,286046999.9,N
1620296695.4,286046999.9,N
1620296715.2,286047000.9,N
1620296735.1,286047001.1,N
1620296736.0,286047001.1,N
1620296755.8,286046998.9,N
1620296775.7,286046996.9,N
1620296795.5,286046995.9,N
1620296815.3,286046997.4,N
1620296835.2,286046997.6,N
1620296855.0,286047001.1,N
1620296855.9,286047001.1,N
1620296875.8,286047011.9,Y
1620296895.6,286047000.2,P
1620296915.4,286047000.4,N
1620296935.3,286047002.5,P
1620296955.1,286047001.7,N
1620296975.8,286047004.1,Y
1620296995.7,286047003.7,P
1620297015.5,286047003.1,N
1620297035.4,286047004.3,P
1620297055.2,286047003.6,N
1620297075.0,286047002.0,N
1620297075.9,286047002.0,N
1620297095.8,286047001.3,N
1620297115.6,286047001.6,N
1620297135.4,286047002.4,N
1620297155.3,286047002.1,N
1620297175.1,286046998.2,N
1620297195.9,286046998.3,N
1620297215.7,286046998.6,N
1620297235.5,286046998.8,N
1620297255.4,286047001.0,N
1620297275.2,286046998.7,N
1620297295.0,286046997.4,N
1620297295.9,286046997.4,N
1620297315.8,286046996.6,N
1620297335.6,286046997.0,N
1620297355.5,286046998.2,N
1620297375.3,286046998.9,N
1620297395.1,286047002.5,N
1620297415.9,286047000.5,N
1620297435.7,286046999.0,N
1620297455.5,286047001.2,N
1620297475.4,286046999.3,N
1620297495.2,286046999.5,N
1620297515.1,286046997.8,N
1620297516.0,286046997.8,N
1620297535.8,286046997.7,N
1620297555.6,286046999.1,N
1620297575.5,286047001.2,N
1620297595.3,286046999.8,N
1620297615.1,286047000.9,N
1620297635.9,286046998.6,N
1620297655.7,286047000.5,N
1620297675.6,286047002.5,N
1620297695.4,286047000.4,N
1620297715.2,286046998.5,N
1620297735.1,286046999.7,N
1620297736.0,286046999.7,N
1620297755.8,286047002.2,N
1620297775.6,286047000.0,N
1620297795.5,286047002.6,N
1620297815.3,286047003.9,N
1620297835.2,286047005.2,N
1620297855.9,286047005.3,N
1620297875.7,286047001.5,N
1620297895.6,286047004.2,N
1620297915.4,286047002.0,N
1620297935.3,286047002.7,N
1620297955.1,286047001.5,N
1620297956.0,286047001.5,N
1620297975.8,286047004.4,N
1620297995.7,286047001.7,N
1620298015.5,286047004.3,N
1620298035.3,286047000.2,N
1620298055.2,286047002.0,N
1620298075.0,286047002.5,N
1620298075.9,286047002.5,N
1620298095.8,286047002.7,N
1620298115.6,286047000.2,N
1620298135.4,286047001.2,N
1620298155.3,286046998.9,N
1620298175.1,286046998.8,N
1620298195.8,286046998.3,N
1620298215.7,286046998.7,N
1620298235.5,286046998.1,N
1620298255.4,286047001.1,N
1620298275.2,286046999.0,N
1620298295.0,286046997.3,N
1620298295.9,286046997.3,N
1620298315.8,286046999.1,N
1620298335.6,286046998.3,N
1620298355.4,286046997.2,N
1620298375.3,286046997.1,N
1620298395.1,286046997.5,N
1620298415.9,286046995.1,N
1620298435.7,286046996.5,N
1620298455.5,286046996.6,N
1620298475.4,286047001.1,N
1620298495.2,286046998.6,N
1620298515.0,286046997.7,N
1620298515.9,286046997.7,N
1620298535.8,286046997.5,N
1620298555.6,286046996.5,N
1620298575.5,286046998.9,N
1620298595.3,286046998.3,N
1620298615.1,286046998.4,N
1620298635.9,286046996.9,N
1620298655.7,286046995.8,N
1620298675.6,286046995.4,Y
1620298695.4,286046996.6,P
1620298715.2,286046999.4,N
1620298735.1,286047000.6,N
1620298736.0,286047000.6,N
1620298755.8,286047002.4,N
1620298775.7,286047001.0,N
1620298795.5,286047000.5,N
